[Iaude] MPEC L14: 2024 KX1 [a=1.89,e=0.51,i=5.6,H=26.6]
    mpec at cfa.harvard.edu 
    mpec at cfa.harvard.edu
       
    Sat Jun  1 19:51:36 EDT 2024
    
    
  
M.P.E.C. 2024-L14                                  Issued 2024 June 1, 23:50 UT
     The Minor Planet Electronic Circulars contain information on unusual
         minor planets, routine data on comets and natural satellites,
         and occasional editorial announcements.  They are published
    on behalf of Division F of the International Astronomical Union by the
          Minor Planet Center, Smithsonian Astrophysical Observatory,
                          Cambridge, MA 02138, U.S.A.
			  
             Prepared using the Tamkin Foundation Computer Network
                              MPC at CFA.HARVARD.EDU
            URL https://www.minorplanetcenter.net/    ISSN 1523-6714
                                    2024 KX1                                    
Observations:
     K24K01X*KC2024 05 31.80505 16 15 12.91 +13 44 44.3          19.6 GXEL014L51
     K24K01X KC2024 05 31.80628 16 15 14.06 +13 44 56.5          19.7 GXEL014L51
     K24K01X KC2024 05 31.80752 16 15 15.19 +13 45 09.0          19.7 GXEL014L51
     K24K01X KC2024 05 31.84773 16 15 52.83 +13 51 50.8          19.6 GXEL014L51
     K24K01X KC2024 05 31.84957 16 15 54.53 +13 52 09.4          19.7 GXEL014L51
     K24K01X KC2024 05 31.85137 16 15 56.27 +13 52 27.4          19.4 GXEL014L51
     K24K01X KB2024 05 31.88489 16 16 35.04 +13 57 58.1          19.2 GXEL014G15
     K24K01X KB2024 05 31.88858 16 16 38.67 +13 58 35.4          19.8 GXEL014G15
     K24K01X KB2024 05 31.91544716 17 07.75 +14 03 14.7          19.3 GXEL014958
     K24K01X KB2024 05 31.92718616 17 19.21 +14 05 16.8          19.8 GXEL014958
     K24K01X KC2024 05 31.94764416 17 38.851+14 08 10.79         20.0 GVEL014J95
     K24K01X KC2024 05 31.96153816 17 52.795+14 10 36.12         20.1 GVEL014J95
     K24K01X KC2024 05 31.97498016 18 06.386+14 12 57.20         19.8 GVEL014J95
     K24K01X KC2024 05 31.98820 16 18 16.04 +14 15 53.7          19.2 GVEL014104
     K24K01X KC2024 06 01.00830 16 18 36.42 +14 19 24.1                VEL014104
     K24K01X KB2024 06 01.13916816 21 09.982+14 49 52.32         20.3 VZEL014Y05
     K24K01X KB2024 06 01.14447616 21 15.588+14 50 52.88         20.0 VZEL014Y05
     K24K01X KB2024 06 01.14970416 21 21.096+14 51 51.16         19.5 VZEL014Y05
     K24K01X mC2024 06 01.15255516 21 47.646+14 46 31.76         19.76GVEL014I52
     K24K01X mC2024 06 01.15272516 21 47.905+14 46 33.46         21.51GVEL014I52
     K24K01X mC2024 06 01.15290116 21 48.038+14 46 36.37         20.70GVEL014I52
     K24K01X mC2024 06 01.15307116 21 48.290+14 46 38.50         20.07GVEL014I52
     K24K01X KC2024 06 01.85730116 39 06.68 +17 22 54.6          19.6 GVEL014203
     K24K01X KB2024 06 01.87577416 39 41.16 +17 27 50.9          19.2 GXEL014I93
     K24K01X KC2024 06 01.87810016 39 42.16 +17 28 32.0          19.7 GVEL014203
     K24K01X KB2024 06 01.87860416 39 46.04 +17 28 37.4          19.4 GXEL014I93
     K24K01X KB2024 06 01.88144716 39 50.96 +17 29 23.7          19.7 GXEL014I93
     K24K01X KC2024 06 01.88894 16 39 51.60 +17 31 47.4          19.2 GXEL014L51
     K24K01X KC2024 06 01.88913016 40 01.10 +17 31 32.2                VEL014203
     K24K01X KC2024 06 01.89063 16 39 54.49 +17 32 14.9          19.7 GXEL014L51
     K24K01X KC2024 06 01.89231 16 39 57.34 +17 32 42.0          19.3 GXEL014L51
     K24K01X 1C2024 06 01.90358 16 40 24.16 +17 34 54.6          19.8 VXEL014033
     K24K01X 1C2024 06 01.90392 16 40 24.75 +17 35 00.2          19.3 VXEL014033
     K24K01X 1C2024 06 01.90426 16 40 25.33 +17 35 05.6          19.9 VXEL014033
     K24K01X 1C2024 06 01.90460 16 40 25.94 +17 35 11.4          20.0 VXEL014033
     K24K01X KB2024 06 01.94108 16 41 30.108+17 46 02.06         18.8 GVEL014L47
     K24K01X KB2024 06 01.94547 16 41 37.793+17 47 15.58         19.4 GVEL014L47
Observer details:
033 Karl Schwarzschild Observatory, Tautenburg.  Observers C. Heogner, F.
    Ludwig, M. Hartmann, B. Stecklum.  Measurer B. Stecklum.  1.34-m f/3
    Schmidt + CCD.
104 San Marcello Pistoiese.  Observers P. Bacci, M. Maestripieri.  Measurer P.
    Bacci.  0.60-m f/4.0 reflector + CCD.
203 GiaGa Observatory.  Observer G. Galli.  0.36-m f/5.76 Schmidt-Cassegrain +
    CCD.
958 Observatoire de Dax.  Observer P. Dupouy.  0.50-m f/4.5 Reflector + CMO.
G15 Magroforte Observatory, Alessandria.  Observer A. De Pieri.  0.23-m f/6.7
    SC + CMO.
I52 Steward Observatory, Mt. Lemmon Station.  Observer K. W. Wierzchos.
    Measurers T. Beuden, V. F. Carvajal, D. Fay, J. B. Fazekas, D. C. Fuls, A.
    R. Gibbs, A. D. Grauer, H. Groeller, J. K. Hogan, R. A. Kowalski, S. M.
    Larson, G. J. Leonard, D. Rankin, R. L. Seaman, F. C. Shelly, K. W.
    Wierzchos.  1.0-m prime focus + CCD.
I93 St Pardon de Conques.  Observer F. Losse.  0.40-m f/3.7 reflector + CMO.
J95 Great Shefford.  Observer P. Birtwhistle.  0.41-m f/6.3 Schmidt-Cassegrain
    + CCD.
L47 Osservatorio Astronomico, Piobbico.  Observers A. Teseo, A. Annamelia.
    Measurer A. Teseo.  0.28-m f/6.3 Schmidt-Cassegrain + CMO.
L51 MARGO, Nauchnyi.  Observer G. Borisov.  0.50-m f/1.9 reflector + CCD.
Y05 SONEAR Wykrota-CEAMIG, Serra da Piedade.  Observers C. Jacques, A.
    Caetano, E. Pimentel.  Measurer C. Jacques.  0.45-m f/2.9 reflector + CMO.
Orbital elements:
2024 KX1                                                 Earth MOID = 0.0060 AU
Epoch 2024 Mar. 31.0 TT = JDT 2460400.5                 Veres                   
M 322.91228              (2000.0)            P               Q                  
n   0.37930056     Peri.  216.73770     +0.42265602     +0.90119850             
a   1.8900809      Node    78.44285     -0.80646890     +0.42228456             
e   0.5063812      Incl.    5.61931     -0.41348494     +0.09755520             
P   2.60           H   26.64          G   0.15           U   7                  
Residuals in seconds of arc
240531 L51  0.2+  0.2+    240531 104  0.3-  0.0     240601 I93  0.1-  0.2+
240531 L51  0.2+  0.2+    240601 104  0.2+  0.7-    240601 L51  0.2-  0.2-
240531 L51  0.1-  0.3+    240601 Y05  0.1+  0.2-    240601 203  0.2+  0.2+
240531 L51  0.4+  0.3+    240601 Y05  0.0   0.5+    240601 L51  0.1+  0.1+
240531 L51  0.0   0.4+    240601 Y05  0.5-  0.2-    240601 L51  0.1+  0.1+
240531 L51  0.7+  0.4+    240601 I52  0.6-  0.3-    240601 033  0.1+  0.2+
240531 G15  1.0-  0.1+    240601 I52  0.3+  0.6-    240601 033  0.1+  0.3+
240531 G15  0.1-  0.5-    240601 I52  0.6-  0.3+    240601 033  0.1-  0.1+
240531 958  0.4+  0.3+    240601 I52  0.2+  0.4+    240601 033  0.1+  0.4+
240531 958  0.3-  0.2+    240601 203  0.3+  0.4+    240601 L47  0.0   1.1-
240531 J95  0.0   0.4+    240601 I93  0.2-  0.2+    240601 L47  0.5-  0.6-
240531 J95  0.1-  0.3+    240601 203  0.0   0.0
240531 J95  0.1+  0.2+    240601 I93  0.3-  0.4+
Ephemeris:
2024 KX1                 a,e,i = 1.89, 0.51, 6                   q = 0.9330
Date    TT    R. A. (2000) Decl.     Delta      r    Elong.  Phase     V
2024 05 02    15 16 27.5 +00 49 19   0.2240  1.2219   161.1    15.5    24.7
...
2024 05 17    15 21 49.6 +03 40 03   0.1184  1.1210   156.8    20.8    23.3
...
2024 05 25    15 31 49.4 +06 12 26   0.06712 1.0723   151.5    26.8    22.1
...
2024 05 31    16 03 36.1 +11 55 31   0.03031 1.0390   145.5    33.6    20.5
2024 06 01    16 18 32.0 +14 20 49   0.02445 1.0337   143.4    35.8    20.1
2024 06 02    16 43 18.8 +18 05 37   0.01882 1.0286   139.7    39.6    19.6
...
2024 06 08    01 49 21.4 +11 19 02   0.02255 1.0001    47.9   131.1    24.2
...
2024 06 16    02 44 54.1 +02 11 18   0.07097 0.9688    47.0   130.0    26.5
...
2024 07 01    03 06 40.8 +00 59 01   0.1649  0.9354    56.4   115.2    27.1
M. P. C. Staff               (C) Copyright 2024 MPC           M.P.E.C. 2024-L14
    
    
More information about the Iaude
mailing list